NOAA 16 DEB

Satellite information

Favourite Embed

Satellite Type and Status

DEBRISIN ORBIT

Key statistics

Satellite NOAA 16 DEB at a glance.

Uptime

9055

Days in orbit

Revolutions

≈ 15.0

Per day

Orbit

SSO

Sun Synchronous Orbit

Inclination

99.0

Latest

Satellite identification and parameters

Extended collection of information and parameters for NOAA 16 DEB.

Object identification

Identified? True

Debris? True

Object name: NOAA 16 DEB

International designator: 2000-055LN

Object number (NORAD): 41433

Object ID (CCSDS): 41433

Country: UNITED STATES OF AMERICA (US)

Current information (Y/N): Y

RCS size: SMALL

Orbital parameters

Period: 96.178 minutes

Inclination: 98.9877 deg

SMA: 6953.598 km

Apoapsis: 583.096 km

Periapsis: 567.83 km

RAAN: 63.7281 deg

Eccentricy: 0.0010977

Argument of periapsis: 359.0554 deg

Mean anomaly: 1.0642 deg

Mean motion: 14.97229621 rev/day

Mean motion (dot): 0.00060994 rev/day2

B* drag term: 0.0052256 1/REarth

Two-line elements (TLE)

Creation date: July 6, 2025, 10:26 p.m.

Reference frame: TEME

Reference center: EARTH

Epoch: July 6, 2025, 2:22 p.m. UTC

TLE line 0: 0 NOAA 16 DEB

TLE line 1: 1 41433U 00055LN 25187.59882703 .00060994 00000-0 52256-2 0 9990

TLE line 2: 2 41433 98.9877 63.7281 0010977 359.0554 1.0642 14.97229621492828

Live tracking on map

Real-time ground track for satellite NOAA 16 DEB.

In-orbit conjunctions

A list of the most updated potential collisions computed for object NOAA 16 DEB.

Target Orbit TCA Probability of collision Miss distance Type
CZ-6A DEB SSO 2024-11-13 22:49:52 0.000370929 308.0 (m) DEBRIS
CBERS 1 DEB SSO 2024-08-14 16:41:12 0.0001063857 265.0 (m) DEBRIS

Associated space launch

The NOAA K, L and M POES satellites begin the fifth generation of improved environmental monitoring in support of NOAA missions. The instrument payload has significant improvements and additions/deletions. The instrument changes have effected the spacecraft subsystems and data formats.

NOAA 16 DEB was lifted into orbit during the mission ‘Titan II SLV | NOAA 16’, on board a Titan II SLV space rocket.

The launch took place on Sept. 21, 2000, 10:22 a.m. from Space Launch Complex 4W.

For more information about the launch, click the button.

Launch to space Titan II SLV | NOAA 16
Titan II SLV | NOAA 16

Agency: N/A

Status: Launch Successful

Launch date: Sept. 21, 2000, 10:22 a.m. UTC

Rocket: Titan II SLV

Launch pad: Space Launch Complex 4W

Location: Vandenberg SFB, CA, USA

...

Latest news about this satellite

There are no fresh news available about this satellite. Check back as we update our databases every day.


Newsletter sign-up

Weekly statistics, charts and insights to help you stay on top of the space industry.